Hourly Data Report for September 12, 2017

All times are specified in Local Standard Time (LST). Add 1 hour to adjust for Daylight Saving Time where and when it is observed.

CAPE DORSET A
NUNAVUT

64°13'49.000" N
76°31'30.000" W
48.20 m
2400637
71366
YTE

Download Data

Hourly Data (September 2017)
Hourly Data Report for September 12, 2017
Temp Definition
°C
Dew Point Temp Definition
°C
Rel Hum Definition
%
Wind Dir Definition
10's deg

Wind Spd Definition
km/h
Visibility Definition
km
Stn Press Definition
kPa
Hmdx Definition


Wind Chill Definition


Weather Definition


TIME
00:00 Legend Double Dagger 1.8 1.5 98 9 63 4.0 98.67     Rain,Fog
01:00 Legend Double Dagger 1.9 1.6 98 8 58 4.8 98.62     Rain,Fog
02:00 Legend Double Dagger 1.8 1.4 97 8 54 6.4 98.60     Rain,Fog
03:00 Legend Double Dagger 1.8 1.5 98 8 61 6.4 98.53     Fog
04:00 Legend Double Dagger 1.9 1.8 99 8 55 4.8 98.46     Fog
05:00 Legend Double Dagger 2.1 2.0 99 7 52 4.8 98.37     Fog
06:00 Legend Double Dagger 2.2 2.2 100 7 48 4.8 98.39     Fog
07:00 Legend Double Dagger 1.9 1.9 100 7 48 8.1 98.36     Fog
08:00 Legend Double Dagger 1.9 1.8 99 7 45 9.7 98.35     Rain,Fog
09:00 Legend Double Dagger 2.1 2.0 99 7 37 16.1 98.36     LegendNANA
10:00 Legend Double Dagger 2.2 1.9 98 6 32 16.1 98.38     LegendNANA
11:00 Legend Double Dagger 2.1 1.7 97 6 37 16.1 98.37     LegendNANA
12:00 Legend Double Dagger 2.1 1.5 96 5 41 16.1 98.39     LegendNANA
13:00 Legend Double Dagger 2.1 1.4 95 5 32 16.1 98.43     LegendNANA
14:00 Legend Double Dagger 2.0 1.4 96 5 26 16.1 98.47     LegendNANA
15:00 Legend Double Dagger 1.9 1.3 96 5 22 16.1 98.48     LegendNANA
16:00 Legend Double Dagger 1.6 1.0 96 4 21 16.1 98.54     LegendNANA
17:00 Legend Double Dagger 0.7 0.4 98 3 21 4.8 98.57     Snow
18:00 Legend Double Dagger 0.8 0.5 98 5 22 4.8 98.61     Snow
19:00 Legend Double Dagger 1.0 0.4 96 5 28 16.1 98.61     Rain
20:00 Legend Double Dagger 0.9 0.5 97 4 21 9.7 98.64     Snow
21:00 Legend Double Dagger 0.8 0.4 97 4 24 11.3 98.68     Snow
22:00 Legend Double Dagger 0.9 0.3 96 4 28 16.1 98.69     Snow
23:00 Legend Double Dagger 1.2 0.5 95 3 32 16.1 98.69     LegendNANA

Notes on Data Quality.

Legend

  • E = Estimated
  • M = Missing
  • NA = Not Available
  • ‡ = Partner data that is not subject to review by the National Climate Archives
Date modified: